sat.trackr.live / text

‹ back to catalog

AEHF-6 (USA 298)

NORAD 45465 · 2020-022B

PAYLOAD ACTIVE UNKNOWN

§ Identity

Operator
Country
US
Launch date
2020-03-26
Launch site
AFETR
Launch vehicle
Mass (kg)
RCS (m²)

Purposes: comms

External: N2YO · Heavens-Above · Gunter

§ Orbital elements

Epoch: 2026-05-25T04:23:58.487712Z

Period
1,436.13 min
Inclination
2.5984°
Eccentricity
0.0044523
Mean motion
1.00269594 rev/d
Perigee alt
35,599.5 km
Apogee alt
35,974.9 km
Semi-major
42,165.3 km
B*
0.0000e+0
RAAN
300.8872°
Arg perigee
18.0744°
Mean anomaly
127.5852°
Rev number
2,278

§ Raw data

AEHF-6 (USA 298)1 45465U 20022B   26145.18331583 -.00000303  00000+0  00000+0 0  99952 45465   2.5984 300.8872 0044523  18.0744 127.5852  1.00269594 22789

JSON: /api/v1/satellites/45465 · /tle

For live sub-satellite position, see the globe view (requires WebGL).

§ Visibility from observer

Set your observer location to see the next 7 days of passes ≥ 10°. The values pass through the URL so the page stays shareable.

No JS? Fill the form by hand. The geolocation button needs JavaScript.